Weather in Gnetovo

Russia / Ryazan Oblast     54°38′42″N   39°58′54″E
temp.,
°C
wind,
m/s
gust,
m/s
humid.,
%
clouds,
%
prec.,
mm/h
press.,
hPa
HPBL,
m
24 july, sat
sat2400:00+13wnw36865 0.0 1009127
03:00+11nw279216 0.0 1010130
06:00+13nw24858 0.0 1010132
09:00+17nw3565100 0.0 1011493
12:00+21wnw454260 0.1 10121965
15:00+19wnw3653100 0.1 1013384
18:00+20nnw344896 0.0 1014770
21:00+16nne226381 0.0 101639
25 july, sun
sun2500:00+15n116598 0.0 101811
03:00+15nnw116699 0.0 101911
06:00+15ne1167100 0.0 102011
09:00+16nne0161100 0.0 1021142
12:00+22s223513 0.0 10222018
15:00+22sw133176 0.0 10212418
18:00+20sw3645100 0.0 1021200
21:00+17wsw2553100 0.0 1023101
26 july, mon
mon2600:00+14w22606 0.0 102428
03:00+14w226195 0.0 102434
06:00+16wsw116089 0.0 102529
09:00+20wsw234797 0.0 1025402
12:00+24sw233227 0.0 10242441
15:00+25wsw223367 0.0 10232107
18:00+24nnw23425 0.0 1023993
21:00+17wnw016362 0.0 102311
27 july, tue
tue2700:00+16w22585 0.0 102413
03:00+15w22614 0.0 102419
06:00+16w23665 0.0 102482
09:00+23w23433 0.0 1023559
12:00+27w333458 0.0 10222676
15:00+27nw333763 0.0 10221900
18:00+24wnw364768 0.0 1021316
21:00+19wnw22630 0.0 102114
28 july, wed
wed2800:00+19w116490 0.0 102114
03:00+16wsw12722 0.0 102011
06:00+17w12720 0.0 102050
09:00+24wsw23481 0.0 1019544
12:00+28wsw34360 0.0 10172346
15:00+28wsw453898 0.0 10162050
18:00+28wsw243748 0.0 1014844
21:00+23wnw1151100 0.0 101312